Location: Ocean City
(38.3360°N, 75.0850°W)
Time: 21:18:06
(UTC-04:00)

MOZHAYETS 4 - Pass Details

Date: 19 May 2019
Orbit: 661 x 681 km, 98.0° (Epoch: 17 June)

Event Time Altitude Azimuth Distance (km) Brightness Sun altitude
Exits shadow 04:34:32 11° 271° (W) 2,026 9.7 -12.7°
Drops below altitude 10° 04:35:53 10° 288° (WNW) 2,115 10.0 -12.5°
Sets 04:39:51 0° 322° (NW) 3,031 11.1 -11.9°
